START_TIME,STEP,MOV.,M15,t_acc.,M20,t_acc.
1979-07-21 15:00:43.590 ,1,0,0.,24.0,0.,24.0
1979-07-21 15:01:07.590 ,2,1,0.,24.0,0.,24.0
1979-07-21 15:01:31.590 ,2,0,0.,24.0,0.,24.0
1979-07-21 15:01:55.590 ,3,1,0.,24.0,0.,24.0
1979-07-21 15:02:19.590 ,3,0,0.,24.0,0.,24.0
1979-07-21 15:02:43.590 ,4,1,0.,24.0,0.,24.0
1979-07-21 15:03:07.590 ,4,0,0.,24.0,0.,24.0
1979-07-21 15:03:31.590 ,5,1,0.,24.0,0.,24.0
1979-07-21 15:03:55.590 ,5,0,0.,24.0,0.,24.0
1979-07-21 15:04:19.590 ,6,1,0.,24.0,0.,24.0
1979-07-21 15:04:43.590 ,6,0,0.,24.0,0.,24.0
1979-07-21 15:05:07.590 ,7,1,0.,24.0,0.,24.0
1979-07-21 15:05:31.590 ,7,0,0.,24.0,0.,24.0
1979-07-21 15:05:55.590 ,7,1,0.,24.0,0.,24.0
1979-07-21 15:06:19.590 ,7,0,0.,24.0,0.,24.0
1979-07-21 15:06:43.590 ,6,1,0.,24.0,0.,24.0
1979-07-21 15:07:07.590 ,6,0,0.,24.0,0.,24.0
1979-07-21 15:07:31.590 ,5,1,0.,24.0,0.,24.0
1979-07-21 15:07:55.590 ,5,0,0.,24.0,0.,24.0
1979-07-21 15:08:19.590 ,4,1,0.,24.0,0.,24.0
1979-07-21 15:08:43.590 ,4,0,0.,24.0,0.,24.0
1979-07-21 15:09:07.590 ,3,1,0.,24.0,0.,24.0
1979-07-21 15:09:31.590 ,3,0,0.,24.0,0.,24.0
1979-07-21 15:09:55.590 ,2,1,0.,24.0,0.,24.0
1979-07-21 15:10:19.590 ,2,0,0.,24.0,0.,24.0
1979-07-21 15:10:43.590 ,1,1,0.,24.0,0.,24.0
1979-07-21 15:11:07.590 ,1,0,0.,24.0,0.,24.0
1979-07-21 15:11:31.590 ,0,1,0.,24.0,0.,24.0
1979-07-21 15:11:55.590 ,0,0,0.,24.0,0.,24.0
1979-07-21 15:12:19.590 ,0,1,0.,24.0,0.,24.0
1979-07-21 15:12:43.590 ,0,0,0.,24.0,0.,24.0
1979-07-21 15:13:07.590 ,1,1,0.,24.0,0.,24.0
1979-07-21 15:13:31.590 ,1,0,0.,24.0,0.,24.0
1979-07-21 15:13:55.590 ,2,1,0.,24.0,0.,24.0
1979-07-21 15:14:19.590 ,2,0,0.,24.0,0.,24.0
1979-07-21 15:14:43.590 ,3,1,0.,24.0,0.,24.0
1979-07-21 15:15:07.590 ,3,0,0.,24.0,0.,24.0
1979-07-21 15:15:31.590 ,4,1,0.,24.0,0.,24.0
1979-07-21 15:15:55.590 ,4,0,0.,24.0,0.,24.0
1979-07-21 15:16:19.590 ,5,1,0.,24.0,0.,24.0
1979-07-21 15:16:43.590 ,5,0,0.,24.0,0.,24.0
1979-07-21 15:17:07.590 ,6,1,0.,24.0,0.,24.0
1979-07-21 15:17:31.590 ,6,0,0.,24.0,0.,24.0
1979-07-21 15:17:55.590 ,7,1,0.,24.0,0.,24.0
1979-07-21 15:18:19.590 ,7,0,0.,24.0,0.,24.0
1979-07-21 15:18:43.590 ,7,1,0.,24.0,0.,24.0
1979-07-21 15:19:07.590 ,7,0,0.,24.0,0.,24.0
1979-07-21 15:19:31.590 ,6,1,0.,24.0,0.,24.0
1979-07-21 15:19:55.590 ,6,0,0.,24.0,0.,24.0
1979-07-21 15:20:19.590 ,5,1,0.,24.0,0.,24.0
1979-07-21 15:20:43.590 ,5,0,0.,24.0,0.,24.0
1979-07-21 15:21:07.590 ,4,1,0.,24.0,0.,24.0
1979-07-21 15:21:31.590 ,4,0,0.,24.0,0.,24.0
1979-07-21 15:21:55.590 ,3,1,0.,24.0,0.,24.0
1979-07-21 15:22:19.590 ,3,0,0.,24.0,0.,24.0
1979-07-21 15:22:43.590 ,2,1,0.,24.0,0.,24.0
1979-07-21 15:23:07.590 ,2,0,0.,24.0,0.,24.0
1979-07-21 15:23:31.590 ,1,1,0.,24.0,0.,24.0
1979-07-21 15:23:55.590 ,1,0,0.,24.0,0.,24.0
1979-07-21 15:24:19.590 ,0,1,0.,24.0,0.,24.0
1979-07-21 15:24:43.590 ,0,0,0.,24.0,0.,24.0
1979-07-21 15:25:07.590 ,0,1,0.,24.0,0.,24.0
1979-07-21 15:25:31.590 ,0,0,0.,24.0,0.,24.0
1979-07-21 15:25:55.590 ,1,1,0.,24.0,0.,24.0
1979-07-21 15:26:19.590 ,1,0,0.,24.0,0.,24.0
1979-07-21 15:26:43.590 ,2,1,0.,24.0,0.,24.0
1979-07-21 15:27:07.590 ,2,0,0.,24.0,0.,24.0
1979-07-21 15:27:31.590 ,3,1,0.,24.0,0.,24.0
1979-07-21 15:27:55.590 ,3,0,0.,24.0,0.,24.0
1979-07-21 15:28:19.590 ,4,1,0.,24.0,0.,24.0
1979-07-21 15:28:43.590 ,4,0,0.,24.0,0.,24.0
1979-07-21 15:29:07.590 ,5,1,0.,24.0,0.,24.0
1979-07-21 15:29:31.590 ,5,0,0.,24.0,0.,24.0
1979-07-21 15:29:55.590 ,6,1,0.,24.0,0.,24.0
1979-07-21 15:30:19.590 ,6,0,0.,24.0,0.,24.0
1979-07-21 15:30:43.590 ,7,0,0.,24.0,0.,24.0
1979-07-21 15:31:07.590 ,7,0,0.,24.0,0.,24.0
1979-07-21 15:31:31.590 ,3,1,0.,24.0,0.,24.0
1979-07-21 15:31:55.590 ,0,1,0.,24.0,0.,24.0
1979-07-21 15:32:19.590 ,4,1,0.,24.0,0.,24.0
1979-07-21 15:32:43.590 ,7,1,0.,24.0,0.,24.0
1979-07-21 15:33:07.590 ,3,1,0.,24.0,0.,24.0
1979-07-21 15:33:31.590 ,0,1,0.,24.0,0.,24.0
1979-07-21 15:33:55.590 ,4,1,0.,24.0,0.,24.0
1979-07-21 15:34:19.590 ,7,1,0.,24.0,0.,24.0
1979-07-21 15:34:43.590 ,3,1,0.,24.0,0.,24.0
1979-07-21 15:35:07.590 ,0,1,0.,24.0,0.,24.0
1979-07-21 15:35:31.590 ,4,1,0.,24.0,0.,24.0
1979-07-21 15:35:55.590 ,7,1,0.,24.0,0.,24.0
1979-07-21 15:36:19.590 ,3,1,0.,24.0,0.,24.0
1979-07-21 15:36:43.590 ,0,1,0.,24.0,0.,24.0
1979-07-21 15:37:07.590 ,4,1,0.,24.0,0.,24.0
1979-07-21 15:37:31.590 ,7,1,0.,24.0,0.,24.0
1979-07-21 15:37:55.590 ,3,1,0.,24.0,0.,24.0
1979-07-21 15:38:19.590 ,0,1,0.,24.0,0.,24.0
1979-07-21 15:38:43.590 ,4,1,0.,24.0,0.,24.0
1979-07-21 15:39:07.590 ,7,1,0.,24.0,0.,24.0
1979-07-21 15:39:31.590 ,3,1,0.,24.0,0.,24.0
1979-07-21 15:39:55.590 ,0,1,0.,24.0,0.,24.0
1979-07-21 15:40:19.590 ,4,1,0.,24.0,0.,24.0
1979-07-21 15:40:43.590 ,7,1,0.,24.0,0.,24.0
1979-07-21 15:41:07.590 ,3,1,0.,24.0,0.,24.0
1979-07-21 15:41:31.590 ,0,1,0.,24.0,0.,24.0
1979-07-21 15:41:55.590 ,0,0,0.,24.0,0.,24.0
1979-07-21 15:42:19.590 ,0,0,0.,24.0,0.,24.0
1979-07-21 15:42:43.590 ,5,1,0.,24.0,0.,24.0
1979-07-21 15:43:07.590 ,5,0,0.,24.0,0.,24.0
1979-07-21 15:43:31.590 ,4,1,0.,24.0,0.,24.0
1979-07-21 15:43:55.590 ,4,0,0.,24.0,0.,24.0
1979-07-21 15:44:19.590 ,3,1,0.,24.0,0.,24.0
1979-07-21 15:44:43.590 ,3,0,0.,24.0,0.,24.0
1979-07-21 15:45:07.590 ,2,1,0.,24.0,0.,24.0
1979-07-21 15:45:31.590 ,2,0,0.,24.0,0.,24.0
1979-07-21 15:45:55.590 ,1,1,0.,24.0,0.,24.0
1979-07-21 15:46:19.590 ,1,0,0.,24.0,0.,24.0
1979-07-21 15:46:43.590 ,0,1,0.,24.0,0.,24.0
1979-07-21 15:47:07.590 ,0,0,0.,24.0,0.,24.0
1979-07-21 15:47:31.590 ,0,1,0.,24.0,0.,24.0
1979-07-21 15:47:55.590 ,0,0,0.,24.0,0.,24.0
1979-07-21 15:48:19.590 ,1,1,0.,24.0,0.,24.0
1979-07-21 15:48:43.590 ,1,0,0.,24.0,0.,24.0
1979-07-21 15:49:07.590 ,2,1,0.,24.0,0.,24.0
1979-07-21 15:49:31.590 ,2,0,0.,24.0,0.,24.0
1979-07-21 15:49:55.590 ,3,1,0.,24.0,0.,24.0
1979-07-21 15:50:19.590 ,3,0,0.,24.0,0.,24.0
1979-07-21 15:50:43.590 ,4,1,0.,24.0,0.,24.0
1979-07-21 15:51:07.590 ,4,0,0.,24.0,0.,24.0
1979-07-21 15:51:31.590 ,5,1,0.,24.0,0.,24.0
1979-07-21 15:51:55.590 ,5,0,0.,24.0,0.,24.0
1979-07-21 15:52:19.590 ,6,1,0.,24.0,0.,24.0
1979-07-21 15:52:43.590 ,6,0,0.,24.0,0.,24.0
1979-07-21 15:53:07.590 ,7,1,0.,24.0,0.,24.0
1979-07-21 15:53:31.590 ,7,0,0.,24.0,0.,24.0
1979-07-21 15:53:55.590 ,7,1,0.,24.0,0.,24.0
1979-07-21 15:54:19.590 ,7,0,0.,24.0,0.,24.0
1979-07-21 15:54:43.590 ,6,1,0.,24.0,0.,24.0
1979-07-21 15:55:07.590 ,6,0,0.,24.0,0.,24.0
1979-07-21 15:55:31.590 ,5,1,0.,24.0,0.,24.0
1979-07-21 15:55:55.590 ,5,0,0.,24.0,0.,24.0
1979-07-21 15:56:19.590 ,4,1,0.,24.0,0.,24.0
1979-07-21 15:56:43.590 ,4,0,0.,24.0,0.,24.0
1979-07-21 15:57:07.590 ,3,1,0.,24.0,0.,24.0
1979-07-21 15:57:31.590 ,3,0,0.,24.0,0.,24.0
1979-07-21 15:57:55.590 ,2,1,0.,24.0,0.,24.0
1979-07-21 15:58:19.590 ,2,0,0.,24.0,0.,24.0
1979-07-21 15:58:43.590 ,1,1,0.,24.0,1.,24.0
1979-07-21 15:59:07.590 ,1,0,0.,24.0,0.,24.0
1979-07-21 15:59:31.590 ,0,1,0.,24.0,0.,24.0
1979-07-21 15:59:55.590 ,0,0,0.,24.0,0.,24.0
1979-07-21 16:00:19.590 ,0,1,0.,24.0,0.,24.0
1979-07-21 16:00:43.590 ,0,0,0.,24.0,0.,24.0
1979-07-21 16:01:07.590 ,1,1,0.,24.0,0.,24.0
1979-07-21 16:01:31.590 ,1,0,0.,24.0,0.,24.0
1979-07-21 16:01:55.590 ,2,1,0.,24.0,0.,24.0
1979-07-21 16:02:19.590 ,2,0,0.,24.0,0.,24.0
1979-07-21 16:02:43.590 ,3,1,0.,24.0,0.,24.0
1979-07-21 16:03:07.590 ,3,0,0.,24.0,0.,24.0
1979-07-21 16:03:31.590 ,4,1,0.,24.0,0.,24.0
1979-07-21 16:03:55.590 ,4,0,0.,24.0,0.,24.0
1979-07-21 16:04:19.590 ,5,1,0.,24.0,0.,24.0
1979-07-21 16:04:43.590 ,5,0,0.,24.0,0.,24.0
1979-07-21 16:05:07.590 ,6,1,0.,24.0,0.,24.0
1979-07-21 16:05:31.590 ,6,0,0.,24.0,0.,24.0
1979-07-21 16:05:55.590 ,7,1,0.,24.0,0.,24.0
1979-07-21 16:06:19.590 ,7,0,0.,24.0,0.,24.0
1979-07-21 16:06:43.590 ,7,1,0.,24.0,0.,24.0
1979-07-21 16:07:07.590 ,7,0,0.,24.0,0.,24.0
1979-07-21 16:07:31.590 ,6,1,0.,24.0,0.,24.0
1979-07-21 16:07:55.590 ,6,0,0.,24.0,0.,24.0
1979-07-21 16:08:19.590 ,5,1,0.,24.0,0.,24.0
1979-07-21 16:08:43.590 ,5,0,0.,24.0,0.,24.0
1979-07-21 16:09:07.590 ,4,1,0.,24.0,0.,24.0
1979-07-21 16:09:31.590 ,4,0,0.,24.0,0.,24.0
1979-07-21 16:09:55.590 ,3,1,0.,24.0,0.,24.0
1979-07-21 16:10:19.590 ,3,0,0.,24.0,0.,24.0
1979-07-21 16:10:43.590 ,2,1,0.,24.0,0.,24.0
1979-07-21 16:11:07.590 ,2,0,0.,24.0,0.,24.0
1979-07-21 16:11:31.590 ,1,1,0.,24.0,0.,24.0
1979-07-21 16:11:55.590 ,1,0,0.,24.0,0.,24.0
1979-07-21 16:12:19.590 ,0,1,0.,24.0,0.,24.0
1979-07-21 16:12:43.590 ,0,0,0.,24.0,0.,24.0
1979-07-21 16:13:07.590 ,0,1,0.,24.0,0.,24.0
1979-07-21 16:13:31.590 ,0,0,0.,24.0,0.,24.0
1979-07-21 16:13:55.590 ,1,1,0.,24.0,0.,24.0
1979-07-21 16:14:19.590 ,1,0,0.,24.0,0.,24.0
1979-07-21 16:14:43.590 ,2,1,0.,24.0,0.,24.0
1979-07-21 16:15:07.590 ,2,0,0.,24.0,0.,24.0
1979-07-21 16:15:31.590 ,3,1,0.,24.0,0.,24.0
1979-07-21 16:15:55.590 ,3,0,0.,24.0,0.,24.0
1979-07-21 16:16:19.590 ,4,1,0.,24.0,0.,24.0
1979-07-21 16:16:43.590 ,4,0,0.,24.0,0.,24.0
1979-07-21 16:17:07.590 ,5,1,0.,24.0,0.,24.0
1979-07-21 16:17:31.590 ,5,0,0.,24.0,0.,24.0
1979-07-21 16:17:55.590 ,6,1,0.,24.0,0.,24.0
1979-07-21 16:18:19.590 ,6,0,0.,24.0,0.,24.0
1979-07-21 16:18:43.590 ,7,0,0.,24.0,0.,24.0
1979-07-21 16:19:07.590 ,7,0,0.,24.0,0.,24.0
1979-07-21 16:19:31.590 ,3,1,0.,24.0,0.,24.0
1979-07-21 16:19:55.590 ,0,1,0.,24.0,0.,24.0
1979-07-21 16:20:19.590 ,4,1,0.,24.0,0.,24.0
1979-07-21 16:20:43.590 ,7,1,0.,24.0,0.,24.0
1979-07-21 16:21:07.590 ,3,1,0.,24.0,0.,24.0
1979-07-21 16:21:31.590 ,0,1,0.,24.0,0.,24.0
1979-07-21 16:21:55.590 ,4,1,0.,24.0,0.,24.0
1979-07-21 16:22:19.590 ,7,1,0.,24.0,0.,24.0
1979-07-21 16:22:43.590 ,3,1,0.,24.0,0.,24.0
1979-07-21 16:23:07.590 ,0,1,0.,24.0,0.,24.0
1979-07-21 16:23:31.590 ,4,1,0.,24.0,0.,24.0
1979-07-21 16:23:55.590 ,7,1,0.,24.0,0.,24.0
1979-07-21 16:24:19.590 ,3,1,0.,24.0,0.,24.0
1979-07-21 16:24:43.590 ,0,1,0.,24.0,0.,24.0
1979-07-21 16:25:07.590 ,4,1,0.,24.0,0.,24.0
1979-07-21 16:25:31.590 ,7,1,0.,24.0,0.,24.0
1979-07-21 16:25:55.590 ,3,1,0.,24.0,0.,24.0
1979-07-21 16:26:19.590 ,0,1,0.,24.0,0.,24.0
1979-07-21 16:26:43.590 ,4,1,0.,24.0,0.,24.0
1979-07-21 16:27:07.590 ,7,1,0.,24.0,0.,24.0
1979-07-21 16:27:31.590 ,3,1,0.,24.0,0.,24.0
1979-07-21 16:27:55.590 ,0,1,0.,24.0,0.,24.0
1979-07-21 16:28:19.590 ,4,1,0.,24.0,0.,24.0
1979-07-21 16:28:43.590 ,7,1,0.,24.0,0.,24.0
1979-07-21 16:29:07.590 ,3,1,0.,24.0,0.,24.0
1979-07-21 16:29:31.590 ,0,1,0.,24.0,0.,24.0
1979-07-21 16:29:55.590 ,0,0,0.,24.0,0.,24.0
1979-07-21 16:30:19.590 ,0,0,0.,24.0,0.,24.0
1979-07-21 16:30:43.590 ,5,1,0.,24.0,0.,24.0
1979-07-21 16:31:07.590 ,5,0,0.,24.0,0.,24.0
1979-07-21 16:31:31.590 ,4,1,0.,24.0,0.,24.0
1979-07-21 16:31:55.590 ,4,0,0.,24.0,0.,24.0
1979-07-21 16:32:19.590 ,3,1,0.,24.0,0.,24.0
1979-07-21 16:32:43.590 ,3,0,0.,24.0,0.,24.0
1979-07-21 16:33:07.590 ,2,1,0.,24.0,0.,24.0
1979-07-21 16:33:31.590 ,2,0,0.,24.0,0.,24.0
1979-07-21 16:33:55.590 ,1,1,0.,24.0,0.,24.0
1979-07-21 16:34:19.590 ,1,0,0.,24.0,0.,24.0
1979-07-21 16:34:43.590 ,0,1,0.,24.0,0.,24.0
1979-07-21 16:35:07.590 ,0,0,0.,24.0,0.,24.0
1979-07-21 16:35:31.590 ,0,1,0.,24.0,0.,24.0
1979-07-21 16:35:55.590 ,0,0,0.,24.0,0.,24.0
1979-07-21 16:36:19.590 ,1,1,1.,24.0,0.,24.0
1979-07-21 16:36:43.590 ,1,0,0.,24.0,0.,24.0
1979-07-21 16:37:07.590 ,2,1,0.,24.0,0.,24.0
1979-07-21 16:37:31.590 ,2,0,0.,24.0,0.,24.0
1979-07-21 16:37:55.590 ,3,1,0.,24.0,0.,24.0
1979-07-21 16:38:19.590 ,3,0,0.,24.0,0.,24.0
1979-07-21 16:38:43.590 ,4,1,0.,24.0,0.,24.0
1979-07-21 16:39:07.590 ,4,0,0.,24.0,0.,24.0
1979-07-21 16:39:31.590 ,5,1,0.,24.0,0.,24.0
1979-07-21 16:39:55.590 ,5,0,0.,24.0,0.,24.0
1979-07-21 16:40:19.590 ,6,1,0.,24.0,0.,24.0
1979-07-21 16:40:43.590 ,6,0,0.,24.0,0.,24.0
1979-07-21 16:41:07.590 ,7,1,0.,24.0,0.,24.0
1979-07-21 16:41:31.590 ,7,0,0.,24.0,0.,24.0
1979-07-21 16:41:55.590 ,7,1,0.,24.0,0.,24.0
1979-07-21 16:42:19.590 ,7,0,0.,24.0,0.,24.0
1979-07-21 16:42:43.590 ,6,1,0.,24.0,0.,24.0
1979-07-21 16:43:07.590 ,6,0,0.,24.0,0.,24.0
1979-07-21 16:43:31.590 ,5,1,0.,24.0,0.,24.0
1979-07-21 16:43:55.590 ,5,0,0.,24.0,0.,24.0
1979-07-21 16:44:19.590 ,4,1,0.,24.0,0.,24.0
1979-07-21 16:44:43.590 ,4,0,0.,24.0,0.,24.0
1979-07-21 16:45:07.590 ,3,1,0.,24.0,0.,24.0
1979-07-21 16:45:31.590 ,3,0,0.,24.0,0.,24.0
1979-07-21 16:45:55.590 ,2,1,0.,24.0,0.,24.0
1979-07-21 16:46:19.590 ,2,0,0.,24.0,0.,24.0
1979-07-21 16:46:43.590 ,1,1,0.,24.0,0.,24.0
1979-07-21 16:47:07.590 ,1,0,0.,24.0,0.,24.0
1979-07-21 16:47:31.590 ,0,1,0.,24.0,0.,24.0
1979-07-21 16:47:55.590 ,0,0,0.,24.0,0.,24.0
1979-07-21 16:48:19.590 ,0,1,0.,24.0,0.,24.0
1979-07-21 16:48:43.590 ,0,0,0.,24.0,0.,24.0
1979-07-21 16:49:07.590 ,1,1,0.,24.0,0.,24.0
1979-07-21 16:49:31.590 ,1,0,0.,24.0,0.,24.0
1979-07-21 16:49:55.590 ,2,1,0.,24.0,0.,24.0
1979-07-21 16:50:19.590 ,2,0,0.,24.0,0.,24.0
1979-07-21 16:50:43.590 ,3,1,0.,24.0,0.,24.0
1979-07-21 16:51:07.590 ,3,0,0.,24.0,0.,24.0
1979-07-21 16:51:31.590 ,4,1,0.,24.0,0.,24.0
1979-07-21 16:51:55.590 ,4,0,0.,24.0,0.,24.0
1979-07-21 16:52:19.590 ,5,1,0.,24.0,0.,24.0
1979-07-21 16:52:43.590 ,5,0,0.,24.0,0.,24.0
1979-07-21 16:53:07.590 ,6,1,0.,24.0,0.,24.0
1979-07-21 16:53:31.590 ,6,0,0.,24.0,0.,24.0
1979-07-21 16:53:55.590 ,7,1,0.,24.0,0.,24.0
1979-07-21 16:54:19.590 ,7,0,0.,24.0,0.,24.0
1979-07-21 16:54:43.590 ,7,1,0.,24.0,0.,24.0
1979-07-21 16:55:07.590 ,7,0,0.,24.0,0.,24.0
1979-07-21 16:55:31.590 ,6,1,0.,24.0,0.,24.0
1979-07-21 16:55:55.590 ,6,0,0.,24.0,0.,24.0
1979-07-21 16:56:19.590 ,5,1,0.,24.0,0.,24.0
1979-07-21 16:56:43.590 ,5,0,0.,24.0,0.,24.0
1979-07-21 16:57:07.590 ,4,1,0.,24.0,0.,24.0
1979-07-21 16:57:31.590 ,4,0,0.,24.0,0.,24.0
1979-07-21 16:57:55.590 ,3,1,0.,24.0,0.,24.0
1979-07-21 16:58:19.590 ,3,0,0.,24.0,0.,24.0
1979-07-21 16:58:43.590 ,2,1,0.,24.0,0.,24.0
1979-07-21 16:59:07.590 ,2,0,0.,24.0,0.,24.0
1979-07-21 16:59:31.590 ,1,1,0.,24.0,0.,24.0
1979-07-21 16:59:55.590 ,1,0,0.,24.0,0.,24.0
1979-07-21 17:00:19.590 ,0,1,0.,24.0,0.,24.0
1979-07-21 17:00:43.590 ,0,0,0.,24.0,0.,24.0
1979-07-21 17:01:07.590 ,0,1,0.,24.0,0.,24.0
1979-07-21 17:01:31.590 ,0,0,0.,24.0,0.,24.0
1979-07-21 17:01:55.590 ,1,1,0.,24.0,0.,24.0
1979-07-21 17:02:19.590 ,0,0,0.,24.0,0.,24.0
1979-07-21 17:02:43.590 ,2,1,0.,24.0,0.,24.0
1979-07-21 17:03:07.590 ,2,0,0.,24.0,0.,24.0
1979-07-21 17:03:31.590 ,3,1,0.,24.0,0.,24.0
1979-07-21 17:03:55.590 ,3,0,0.,24.0,0.,24.0
1979-07-21 17:04:19.590 ,4,1,0.,24.0,0.,24.0
1979-07-21 17:04:43.590 ,4,0,0.,24.0,0.,24.0
1979-07-21 17:05:07.590 ,5,1,0.,24.0,0.,24.0
1979-07-21 17:05:31.590 ,5,0,0.,24.0,0.,24.0
1979-07-21 17:05:55.590 ,6,1,0.,24.0,0.,24.0
1979-07-21 17:06:19.590 ,6,0,0.,24.0,0.,24.0
1979-07-21 17:06:43.590 ,7,0,0.,24.0,0.,24.0
1979-07-21 17:07:07.590 ,7,0,0.,24.0,0.,24.0
1979-07-21 17:07:31.590 ,3,1,0.,24.0,0.,24.0
1979-07-21 17:07:55.590 ,0,1,0.,24.0,0.,24.0
1979-07-21 17:08:19.590 ,4,1,0.,24.0,0.,24.0
1979-07-21 17:08:43.590 ,7,1,0.,24.0,0.,24.0
1979-07-21 17:09:07.590 ,3,1,0.,24.0,0.,24.0
1979-07-21 17:09:31.590 ,0,1,0.,24.0,0.,24.0
1979-07-21 17:09:55.590 ,4,1,0.,24.0,0.,24.0
1979-07-21 17:10:19.590 ,7,1,0.,24.0,0.,24.0
1979-07-21 17:10:43.590 ,3,1,0.,24.0,0.,24.0
1979-07-21 17:11:07.590 ,0,1,0.,24.0,0.,24.0
1979-07-21 17:11:31.590 ,4,1,0.,24.0,0.,24.0
1979-07-21 17:11:55.590 ,7,1,0.,24.0,0.,24.0
1979-07-21 17:12:19.590 ,3,1,0.,24.0,0.,24.0
1979-07-21 17:12:43.590 ,0,1,0.,24.0,0.,24.0
1979-07-21 17:13:07.590 ,4,1,0.,24.0,0.,24.0
1979-07-21 17:13:31.590 ,7,1,0.,24.0,0.,24.0
1979-07-21 17:13:55.590 ,3,1,0.,24.0,0.,24.0
1979-07-21 17:14:19.590 ,0,1,0.,24.0,0.,24.0
1979-07-21 17:14:43.590 ,4,1,0.,24.0,0.,24.0
1979-07-21 17:15:07.590 ,7,1,0.,24.0,0.,24.0
1979-07-21 17:15:31.590 ,3,1,0.,24.0,0.,24.0
1979-07-21 17:15:55.590 ,0,1,0.,24.0,0.,24.0
1979-07-21 17:16:19.590 ,4,1,0.,24.0,0.,24.0
1979-07-21 17:16:43.590 ,7,1,0.,24.0,0.,24.0
1979-07-21 17:17:07.590 ,3,1,0.,24.0,0.,24.0
1979-07-21 17:17:31.590 ,0,1,0.,24.0,0.,24.0
1979-07-21 17:17:55.590 ,0,0,0.,24.0,0.,24.0
1979-07-21 17:18:19.590 ,0,0,0.,24.0,0.,24.0
1979-07-21 17:18:43.590 ,5,1,0.,24.0,0.,24.0
1979-07-21 17:19:07.590 ,5,0,0.,24.0,0.,24.0
1979-07-21 17:19:31.590 ,4,1,0.,24.0,0.,24.0
1979-07-21 17:19:55.590 ,4,0,0.,24.0,0.,24.0
1979-07-21 17:20:19.590 ,3,1,0.,24.0,0.,24.0
1979-07-21 17:20:43.590 ,3,0,0.,24.0,0.,24.0
1979-07-21 17:21:07.590 ,2,1,0.,24.0,0.,24.0
1979-07-21 17:21:31.590 ,2,0,0.,24.0,0.,24.0
1979-07-21 17:21:55.590 ,1,1,0.,24.0,0.,24.0
1979-07-21 17:22:19.590 ,1,0,0.,24.0,0.,24.0
1979-07-21 17:22:43.590 ,0,1,0.,24.0,0.,24.0
1979-07-21 17:23:07.590 ,0,0,0.,24.0,0.,24.0
1979-07-21 17:23:31.590 ,0,1,0.,24.0,0.,24.0
1979-07-21 17:23:55.590 ,0,0,0.,24.0,0.,24.0
1979-07-21 17:24:19.590 ,1,1,0.,24.0,0.,24.0
1979-07-21 17:24:43.590 ,1,0,0.,24.0,0.,24.0
1979-07-21 17:25:07.590 ,2,1,0.,24.0,0.,24.0
1979-07-21 17:25:31.590 ,2,0,0.,24.0,0.,24.0
1979-07-21 17:25:55.590 ,3,1,0.,24.0,0.,24.0
1979-07-21 17:26:19.590 ,0,0,,0,,0
1979-07-21 17:26:43.590 ,4,1,0.,24.0,0.,24.0
1979-07-21 17:27:07.590 ,4,0,0.,24.0,0.,24.0
1979-07-21 17:27:31.590 ,5,1,0.,24.0,0.,24.0
1979-07-21 17:27:55.590 ,5,0,0.,24.0,0.,24.0
1979-07-21 17:28:19.590 ,6,1,0.,24.0,0.,24.0
1979-07-21 17:28:43.590 ,6,0,0.,24.0,0.,24.0
1979-07-21 17:29:07.590 ,7,1,0.,24.0,0.,24.0
1979-07-21 17:29:31.590 ,7,0,0.,24.0,0.,24.0
1979-07-21 17:29:55.590 ,7,1,0.,24.0,0.,24.0
1979-07-21 17:30:19.590 ,7,0,0.,24.0,0.,24.0
1979-07-21 17:30:43.590 ,6,1,0.,24.0,0.,24.0
1979-07-21 17:31:07.590 ,6,0,0.,24.0,0.,24.0
1979-07-21 17:31:31.590 ,5,1,0.,24.0,0.,24.0
1979-07-21 17:31:55.590 ,5,0,0.,24.0,0.,24.0
1979-07-21 17:32:19.590 ,4,1,0.,24.0,0.,24.0
1979-07-21 17:32:43.590 ,4,0,0.,24.0,0.,24.0
1979-07-21 17:33:07.590 ,3,1,0.,24.0,0.,24.0
1979-07-21 17:33:31.590 ,3,0,0.,24.0,0.,24.0
1979-07-21 17:33:55.590 ,2,1,0.,24.0,0.,24.0
1979-07-21 17:34:19.580 ,2,0,0.,24.0,0.,24.0
1979-07-21 17:34:43.580 ,1,1,0.,24.0,0.,24.0
1979-07-21 17:35:07.580 ,1,0,0.,24.0,0.,24.0
1979-07-21 17:35:31.580 ,0,1,0.,24.0,0.,24.0
1979-07-21 17:35:55.580 ,0,0,0.,24.0,0.,24.0
1979-07-21 17:36:19.580 ,0,1,0.,24.0,0.,24.0
1979-07-21 17:36:43.580 ,0,0,0.,24.0,0.,24.0
1979-07-21 17:37:07.580 ,1,1,0.,24.0,0.,24.0
1979-07-21 17:37:31.580 ,1,0,0.,24.0,0.,24.0
1979-07-21 17:37:55.580 ,2,1,0.,24.0,0.,24.0
1979-07-21 17:38:19.580 ,2,0,0.,24.0,0.,24.0
1979-07-21 17:38:43.580 ,3,1,0.,24.0,0.,24.0
1979-07-21 17:39:07.580 ,3,0,0.,24.0,0.,24.0
1979-07-21 17:39:31.580 ,4,1,0.,24.0,0.,24.0
1979-07-21 17:39:55.580 ,4,0,0.,24.0,0.,24.0
1979-07-21 17:40:19.580 ,5,1,0.,24.0,0.,24.0
1979-07-21 17:40:43.580 ,5,0,0.,24.0,0.,24.0
1979-07-21 17:41:07.580 ,6,1,0.,24.0,0.,24.0
1979-07-21 17:41:31.580 ,6,0,0.,24.0,0.,24.0
1979-07-21 17:41:55.580 ,7,1,0.,24.0,0.,24.0
1979-07-21 17:42:19.580 ,7,0,0.,24.0,0.,24.0
1979-07-21 17:42:43.580 ,7,1,0.,24.0,0.,24.0
1979-07-21 17:43:07.580 ,7,0,0.,24.0,0.,24.0
1979-07-21 17:43:31.580 ,6,1,0.,24.0,0.,24.0
1979-07-21 17:43:55.580 ,6,0,0.,24.0,0.,24.0
1979-07-21 17:44:19.580 ,5,1,0.,24.0,0.,24.0
1979-07-21 17:44:43.580 ,5,0,0.,24.0,0.,24.0
1979-07-21 17:45:07.580 ,4,1,0.,24.0,0.,24.0
1979-07-21 17:45:31.580 ,4,0,0.,24.0,0.,24.0
1979-07-21 17:45:55.580 ,3,1,0.,24.0,0.,24.0
1979-07-21 17:46:19.580 ,3,0,0.,24.0,0.,24.0
1979-07-21 17:46:43.580 ,2,1,0.,24.0,0.,24.0
1979-07-21 17:47:07.580 ,2,0,0.,24.0,0.,24.0
1979-07-21 17:47:31.580 ,1,1,0.,24.0,0.,24.0
1979-07-21 17:47:55.580 ,1,0,0.,24.0,0.,24.0
1979-07-21 17:48:19.580 ,0,1,0.,24.0,0.,24.0
1979-07-21 17:48:43.580 ,0,0,0.,24.0,0.,24.0
1979-07-21 17:49:07.580 ,0,1,0.,24.0,0.,24.0
1979-07-21 17:49:31.580 ,0,0,0.,24.0,0.,24.0
1979-07-21 17:49:55.580 ,1,1,0.,24.0,0.,24.0
1979-07-21 17:50:19.580 ,1,0,0.,24.0,0.,24.0
1979-07-21 17:50:43.580 ,2,1,0.,24.0,0.,24.0
1979-07-21 17:51:07.580 ,2,0,0.,24.0,0.,24.0
1979-07-21 17:51:31.580 ,3,1,0.,24.0,0.,24.0
1979-07-21 17:51:55.580 ,3,0,0.,24.0,0.,24.0
1979-07-21 17:52:19.580 ,4,1,0.,24.0,0.,24.0
1979-07-21 17:52:43.580 ,4,0,0.,24.0,0.,24.0
1979-07-21 17:53:07.580 ,5,1,0.,24.0,0.,24.0
1979-07-21 17:53:31.580 ,5,0,0.,24.0,0.,24.0
1979-07-21 17:53:55.580 ,6,1,0.,24.0,0.,24.0
1979-07-21 17:54:19.580 ,6,0,0.,24.0,0.,24.0
1979-07-21 17:54:43.580 ,7,0,0.,24.0,0.,24.0
1979-07-21 17:55:07.580 ,7,0,0.,24.0,0.,24.0
1979-07-21 17:55:31.580 ,3,1,0.,24.0,0.,24.0
1979-07-21 17:55:55.580 ,0,1,0.,24.0,0.,24.0
1979-07-21 17:56:19.580 ,4,1,0.,24.0,0.,24.0
1979-07-21 17:56:43.580 ,7,1,0.,24.0,0.,24.0
1979-07-21 17:57:07.580 ,3,1,0.,24.0,0.,24.0
1979-07-21 17:57:31.580 ,0,1,0.,24.0,0.,24.0
1979-07-21 17:57:55.580 ,4,1,0.,24.0,0.,24.0
1979-07-21 17:58:19.580 ,7,1,0.,24.0,0.,24.0
1979-07-21 17:58:43.580 ,3,1,0.,24.0,0.,24.0
1979-07-21 17:59:07.580 ,0,1,0.,24.0,0.,24.0
1979-07-21 17:59:31.580 ,4,1,0.,24.0,0.,24.0
1979-07-21 17:59:55.580 ,7,1,0.,24.0,0.,24.0
1979-07-21 18:00:19.580 ,3,1,0.,24.0,0.,24.0
